Weather reports worldwide

Advertisment
Girona/Costa Brava, Spain (8184): temperature & dewpoint: 11.06.2019 20:00:00 - 17.06.2019 20:00:00 (CEST)Girona/Costa Brava, Spain (8184): wind speed: 11.06.2019 20:00:00 - 17.06.2019 20:00:00 (CEST)Girona/Costa Brava, Spain (8184): wind direction: 11.06.2019 20:00:00 - 17.06.2019 20:00:00 (CEST)Girona/Costa Brava, Spain (8184): reduced air pressure: 11.06.2019 20:00:00 - 17.06.2019 20:00:00 (CEST)Girona/Costa Brava, Spain (8184): visibility: 11.06.2019 20:00:00 - 17.06.2019 20:00:00 (CEST)
Date & Time tt [°C] td [°C] ff [km/h] ff [kn] dd ppp [hPa] vv [km]
17.06.2019 20:00:00 - - - - - - -
17.06.2019 19:00:00 26,5 13,3 16 9 S 1013,7 -
17.06.2019 18:00:00 27,7 11,7 22 12 S 1013,6 -
17.06.2019 17:00:00 28,6 11,3 22 12 S 1013,9 -
17.06.2019 16:00:00 30,7 8,6 24 13 S 1013,8 -
17.06.2019 15:00:00 30,1 11,7 21 11 SSW 1014,4 30
17.06.2019 14:00:00 30,9 11,3 18 10 SSW 1014,5 -
17.06.2019 13:00:00 30,2 11,9 13 7 S 1014,7 -
17.06.2019 12:00:00 28,6 12,1 5 3 S 1015,1 -
17.06.2019 11:00:00 27,0 12,4 5 3 SE 1015,5 -
17.06.2019 10:00:00 25,0 12,5 4 2 SSE 1016,2 -
17.06.2019 09:00:00 20,9 14,8 4 2 SW 1016,8 -
17.06.2019 08:00:00 17,1 13,6 4 2 SW 1016,8 60
17.06.2019 07:00:00 13,8 12,7 4 2 NE 1016,7 -
17.06.2019 06:00:00 12,2 11,6 2 1 NE 1016,6 -
17.06.2019 05:00:00 12,7 11,6 5 3 NE 1016,1 15
17.06.2019 04:00:00 13,6 11,9 4 2 NW 1016,2 -
17.06.2019 03:00:00 13,6 12,0 0 0 N 1016,2 -
17.06.2019 02:00:00 14,0 12,0 0 0 N 1016,5 15
17.06.2019 01:00:00 15,3 13,0 2 1 N 1016,8 -
17.06.2019 00:00:00 16,0 12,9 5 3 WSW 1017,1 -
16.06.2019 23:00:00 17,3 13,2 0 0 N 1017,0 -
16.06.2019 22:00:00 18,5 13,4 4 2 SW 1016,6 -
16.06.2019 21:00:00 20,3 14,0 11 6 S 1016,5 -
16.06.2019 20:00:00 22,1 14,2 13 7 S 1016,3 40
16.06.2019 19:00:00 23,5 13,9 16 9 S 1016,4 -
16.06.2019 18:00:00 25,6 12,4 22 12 S 1016,1 -
16.06.2019 17:00:00 26,5 13,6 18 10 S 1016,2 15
16.06.2019 16:00:00 26,6 12,9 22 12 S 1016,8 -
16.06.2019 15:00:00 26,6 13,1 24 13 S 1017,5 -
16.06.2019 14:00:00 27,6 12,7 16 9 S 1017,6 -
16.06.2019 13:00:00 26,4 12,6 9 5 S 1018,3 -
16.06.2019 12:00:00 25,1 11,6 5 3 SSW 1018,8 -
16.06.2019 11:00:00 23,9 10,6 8 4 SSE 1019,4 20
16.06.2019 10:00:00 21,7 10,8 11 6 ENE 1019,8 -
16.06.2019 09:00:00 20,0 13,0 0 0 N 1020,0 -
16.06.2019 08:00:00 16,6 12,7 0 0 N 1019,8 -
16.06.2019 07:00:00 12,1 11,3 4 2 NE 1019,5 -
16.06.2019 06:00:00 11,2 10,2 0 0 N 1019,6 -
16.06.2019 05:00:00 11,7 10,6 4 2 S 1019,6 -
16.06.2019 04:00:00 12,3 10,7 0 0 N 1019,5 -
16.06.2019 03:00:00 13,0 10,9 0 0 N 1019,8 -
16.06.2019 02:00:00 13,7 10,9 4 2 NNW 1020,1 -
16.06.2019 01:00:00 15,5 11,1 5 3 NNW 1019,9 -
16.06.2019 00:00:00 15,5 11,1 5 3 NW 1019,7 -
15.06.2019 23:00:00 16,1 11,3 8 4 E 1019,4 -
15.06.2019 22:00:00 18,5 12,3 8 4 ENE 1018,4 -
15.06.2019 21:00:00 20,3 14,9 9 5 SW 1017,5 -
15.06.2019 20:00:00 21,7 15,1 11 6 SW 1016,8 30
15.06.2019 19:00:00 22,9 14,7 11 6 S 1016,2 -
15.06.2019 18:00:00 23,6 14,8 13 7 SE 1015,8 -
15.06.2019 17:00:00 25,0 15,3 16 9 SSE 1015,4 30
15.06.2019 16:00:00 25,8 15,9 15 8 SE 1014,9 -
15.06.2019 15:00:00 25,9 15,5 13 7 ESE 1014,8 -
15.06.2019 14:00:00 26,2 15,6 11 6 E 1015,2 30
15.06.2019 13:00:00 25,2 15,6 9 5 E 1015,5 -
15.06.2019 12:00:00 24,0 15,8 9 5 ENE 1015,5 -
15.06.2019 11:00:00 22,0 15,7 15 8 NE 1015,6 35
15.06.2019 10:00:00 22,2 15,4 8 4 NNE 1015,6 -
15.06.2019 09:00:00 20,4 14,7 11 6 NE 1015,0 -
15.06.2019 08:00:00 18,9 15,6 5 3 NNE 1015,0 -
15.06.2019 07:00:00 16,3 13,6 5 3 N 1014,4 -
15.06.2019 06:00:00 15,9 13,4 11 6 N 1013,9 -
15.06.2019 05:00:00 14,8 12,3 4 2 NW 1013,8 -
15.06.2019 04:00:00 13,7 12,4 8 4 NNE 1013,6 -
15.06.2019 03:00:00 15,2 12,7 4 2 SSE 1013,5 -
15.06.2019 02:00:00 14,9 13,1 4 2 NNE 1013,5 -
15.06.2019 01:00:00 16,2 13,5 0 0 N 1013,4 -
15.06.2019 00:00:00 17,4 14,2 0 0 N 1013,1 -
14.06.2019 23:00:00 18,3 14,4 5 3 NNE 1012,5 -
14.06.2019 22:00:00 20,4 14,5 8 4 ESE 1011,0 -
14.06.2019 21:00:00 22,6 14,7 9 5 E 1009,9 -
14.06.2019 20:00:00 25,1 15,1 11 6 SSE 1008,8 15
14.06.2019 19:00:00 26,0 15,2 18 10 S 1007,6 -
14.06.2019 18:00:00 26,6 15,2 21 11 S 1007,0 -
14.06.2019 17:00:00 27,5 13,7 18 10 S 1007,3 -
14.06.2019 16:00:00 26,7 12,3 13 7 ENE 1007,5 -
14.06.2019 15:00:00 24,3 12,2 35 19 NE 1005,2 -
14.06.2019 14:00:00 24,2 12,4 15 8 NE 1008,3 -
14.06.2019 13:00:00 24,1 12,3 18 10 NNE 1008,3 -
14.06.2019 12:00:00 21,8 12,4 34 18 NE 1006,9 -
14.06.2019 11:00:00 22,9 12,4 22 12 NNE 1009,0 -
14.06.2019 10:00:00 21,5 12,5 29 16 NNE 1009,4 -
14.06.2019 09:00:00 19,7 11,7 26 14 NNE 1008,9 -
14.06.2019 08:00:00 18,0 10,5 26 14 NNE 1008,5 -
14.06.2019 07:00:00 15,8 7,9 18 10 NNE 1009,6 -
14.06.2019 06:00:00 15,8 4,7 21 11 N 1009,8 -
14.06.2019 05:00:00 13,1 9,2 15 8 NNE 1010,4 2,0
14.06.2019 04:00:00 13,3 8,1 13 7 NNE 1010,5 -
14.06.2019 03:00:00 14,6 8,4 0 0 N 1011,7 -
14.06.2019 02:00:00 14,5 8,0 9 5 N 1012,6 -
14.06.2019 01:00:00 14,8 7,8 11 6 N 1013,6 -
14.06.2019 00:00:00 14,9 10,1 4 2 N 1013,5 -
13.06.2019 23:00:00 15,8 9,6 8 4 NNE 1013,5 30
13.06.2019 22:00:00 17,7 7,9 9 5 N 1012,5 -
13.06.2019 21:00:00 19,3 7,8 0 0 N 1012,3 -
13.06.2019 20:00:00 20,7 5,6 9 5 SE 1012,6 30
13.06.2019 19:00:00 22,8 2,4 15 8 SE 1012,3 -
13.06.2019 18:00:00 23,5 0,7 18 10 SE 1012,4 -
13.06.2019 17:00:00 22,3 6,2 16 9 SE 1012,6 -
13.06.2019 16:00:00 24,8 6,1 18 10 SE 1013,2 -
13.06.2019 15:00:00 25,7 7,5 15 8 SE 1012,4 -
13.06.2019 14:00:00 25,2 8,9 13 7 S 1013,2 25
13.06.2019 13:00:00 24,2 8,5 9 5 S 1013,6 -
13.06.2019 12:00:00 23,3 6,8 9 5 SSE 1014,0 -
13.06.2019 11:00:00 21,3 11,7 9 5 S 1014,6 30
13.06.2019 10:00:00 18,5 12,0 8 4 SSW 1014,6 -
13.06.2019 09:00:00 16,0 12,4 4 2 SSE 1014,8 -
13.06.2019 08:00:00 13,7 11,6 0 0 N 1014,6 50
13.06.2019 07:00:00 10,0 9,5 5 3 NNE 1014,9 -
13.06.2019 06:00:00 8,7 8,4 0 0 N 1014,9 -
13.06.2019 05:00:00 9,1 8,3 4 2 S 1014,7 -
13.06.2019 04:00:00 10,2 9,7 9 5 WNW 1014,7 -
13.06.2019 03:00:00 10,3 9,5 2 1 S 1014,9 -
13.06.2019 02:00:00 11,6 11,0 8 4 N 1015,3 10
13.06.2019 01:00:00 11,5 10,7 4 2 E 1015,6 -
13.06.2019 00:00:00 12,9 11,5 4 2 SW 1015,6 -
12.06.2019 23:00:00 14,4 12,3 5 3 SSE 1015,3 25
12.06.2019 22:00:00 15,3 12,2 13 7 S 1014,6 -
12.06.2019 21:00:00 16,6 11,7 13 7 SSE 1013,8 -
12.06.2019 20:00:00 19,0 11,3 22 12 S 1013,1 -
12.06.2019 19:00:00 20,0 11,7 26 14 S 1012,5 -
12.06.2019 18:00:00 20,9 11,9 29 16 S 1012,5 -
12.06.2019 17:00:00 21,5 11,6 28 15 S 1012,7 -
12.06.2019 16:00:00 21,6 11,6 24 13 SSE 1012,8 -
12.06.2019 15:00:00 21,4 11,5 24 13 S 1013,1 -
12.06.2019 14:00:00 19,8 10,0 18 10 S 1013,7 -
12.06.2019 13:00:00 20,6 10,1 15 8 S 1014,0 -
12.06.2019 12:00:00 19,1 10,4 11 6 S 1014,5 -
12.06.2019 11:00:00 17,2 9,2 5 3 SSE 1014,9 -
12.06.2019 10:00:00 14,7 12,0 0 0 N 1015,1 -
12.06.2019 09:00:00 12,4 12,1 2 1 S 1015,0 -
12.06.2019 08:00:00 9,5 9,5 0 0 N 1014,7 -
12.06.2019 07:00:00 8,6 8,6 0 0 N 1014,1 -
12.06.2019 06:00:00 8,6 8,6 8 4 NNE 1013,7 -
12.06.2019 05:00:00 9,1 9,1 0 0 N 1013,4 -
12.06.2019 04:00:00 9,5 9,5 0 0 N 1013,6 -
12.06.2019 03:00:00 9,7 9,7 2 1 SE 1013,8 -
12.06.2019 02:00:00 9,9 9,8 4 2 SE 1013,8 -
12.06.2019 01:00:00 10,1 9,8 5 3 WSW 1014,1 -
12.06.2019 00:00:00 11,1 10,8 0 0 N 1013,8 -
11.06.2019 23:00:00 11,9 11,6 4 2 SW 1013,9 -
11.06.2019 22:00:00 12,1 11,8 4 2 SW 1013,9 -
11.06.2019 21:00:00 12,3 11,8 4 2 SE 1013,2 -
11.06.2019 20:00:00 12,4 11,5 0 0 N 1013,2 -

tt = temperature
td = dewpoint
ff = wind speed
dd = wind direction
ppp = reduced air pressure
vv = visibility

Next stations